Wind_Speed
12 12 10 11 12 12 12 11 11 11 11 11 11 11 11 12 12 12 12 11 12 13 14 14 13 11 10 5 5 6 6 8 8 7 7 6 5 7 10 8 12 22 26 28 25 24 27
10 9 8 9 10 10 10 10 10 11 11 11 11 11 12 12 12 12 11 11 12 13 12 12 11 11 8 7 7 9 9 6 4 6 6 6 4 6 11 13 14 14 22 24 24 25 27
6 7 7 7 8 9 8 9 9 10 10 11 11 11 12 13 13 12 11 12 12 11 10 11 11 10 13 7 10 10 11 6 1 4 4 5 6 6 7 10 14 20 23 22 26 29 24
5 6 6 6 6 7 7 7 8 9 10 11 11 13 13 14 14 12 11 12 11 8 9 11 12 13 7 5 8 10 5 6 7 7 7 6 5 8 12 13 20 21 21 21 16 11 18
5 2 2 2 2 4 4 5 7 9 11 12 13 14 14 15 15 13 12 11 8 8 11 11 12 8 5 9 9 11 13 6 8 8 8 10 7 9 10 13 15 15 19 25 25 18 16
3 2 1 1 1 1 2 6 8 9 10 13 14 14 14 14 15 13 12 6 7 15 10 9 12 5 10 8 8 10 12 9 4 6 2 3 6 8 8 10 15 18 20 23 25 17 16
3 1 2 3 3 4 5 6 7 9 11 13 13 14 14 13 14 15 13 4 3 3 16 7 5 5 6 11 8 6 13 6 6 3 4 2 8 9 12 13 16 18 20 25 25 22 22
2 2 4 6 6 5 5 6 8 8 11 13 14 14 14 12 12 14 13 10 10 4 5 9 8 9 10 11 4 6 9 7 5 6 4 6 11 11 10 11 13 16 19 23 24 20 18
4 5 4 3 5 6 5 5 7 8 12 12 13 13 13 9 8 11 16 15 10 7 2 2 2 5 7 6 4 9 7 7 7 6 8 9 11 9 9 11 13 17 19 21 23 22 22
3 2 3 2 1 4 5 4 5 9 10 11 12 13 13 8 5 8 8 10 7 5 2 4 2 3 8 7 2 4 6 6 6 9 9 9 2 8 12 13 12 18 17 15 17 17 16
4 2 2 1 2 5 5 3 4 8 8 11 12 13 11 9 4 5 4 7 4 4 2 3 3 3 10 7 9 3 9 5 11 14 8 10 11 13 13 4 7 12 13 17 17 17 18
5 5 5 4 5 4 3 3 4 6 8 10 10 11 9 6 5 2 3 4 2 2 3 1 3 7 13 6 7 10 8 7 12 10 10 14 17 12 8 9 8 12 13 16 20 17 15
7 6 5 6 6 6 3 2 3 4 7 8 9 8 7 6 1 2 3 2 2 3 1 3 3 9 9 8 5 10 11 8 8 6 7 15 9 3 6 11 3 8 11 6 5 8 12
7 7 8 7 4 1 4 4 4 4 5 7 6 6 8 7 7 5 4 2 1 0 2 2 4 10 4 8 5 11 11 4 9 10 10 9 0 4 8 11 9 16 7 6 6 13 17
6 5 5 4 2 3 4 5 5 5 5 5 4 4 7 6 5 6 2 3 3 1 2 6 9 4 0 2 6 7 9 5 4 10 7 6 6 20 15 9 9 6 8 16 9 18 12
8 8 4 3 2 0 2 5 5 5 5 5 7 5 5 5 5 6 1 4 2 2 1 3 3 2 6 8 7 9 6 2 5 8 7 6 12 12 4 15 7 9 11 6 6 7 11
8 7 7 6 4 4 2 1 4 4 4 5 8 3 3 5 6 4 3 3 3 2 2 2 3 6 7 7 7 10 4 3 5 8 11 9 5 11 17 4 15 11 4 4 5 6 5
10 9 9 8 7 4 3 3 2 4 4 6 4 3 5 4 2 3 2 2 0 2 2 4 5 7 9 8 11 8 7 5 7 13 12 2 5 12 17 17 5 2 5 8 5 9 14
8 6 6 8 6 5 6 3 2 2 4 6 4 4 3 3 1 2 3 1 2 2 2 2 3 5 7 9 6 4 8 10 15 8 7 9 4 11 11 8 4 3 8 6 10 12 15
10 8 9 8 7 6 6 6 4 2 2 5 4 2 2 2 1 1 1 1 3 3 6 6 7 7 10 9 8 8 14 9 11 19 22 17 14 14 13 15 14 20 19 15 12 9 16
8 7 11 10 9 8 5 7 6 4 1 4 3 3 2 3 3 4 2 2 3 3 5 5 4 7 7 6 13 17 15 17 24 22 17 6 11 12 15 21 20 23 22 22 17 18 16
11 11 10 10 10 11 9 8 6 5 4 3 4 4 2 4 4 4 4 3 4 2 4 4 8 10 11 11 12 19 20 18 19 18 11 8 10 13 18 22 21 23 21 22 23 20 16
16 14 12 11 10 11 12 10 9 6 7 3 5 6 3 4 5 4 3 4 3 1 5 8 6 10 14 17 19 22 25 29 27 22 19 16 14 13 20 15 12 15 20 18 10 12 14
20 19 15 14 11 12 13 15 13 10 7 7 7 6 4 3 6 5 6 7 8 9 11 15 15 15 11 16 22 23 25 28 26 22 22 13 16 10 11 9 12 12 8 9 6 9 8
19 22 20 15 14 13 14 15 13 14 10 8 11 9 5 3 9 9 10 10 10 9 10 12 13 10 8 13 8 8 2 3 3 6 6 12 12 3 4 8 14 19 4 4 12 9 11
9 11 23 16 14 13 16 16 13 14 14 11 10 11 7 3 6 11 4 6 7 7 9 6 5 8 3 4 2 3 3 3 2 4 5 4 6 5 3 5 4 4 8 17 16 9 14
9 12 21 17 16 15 17 17 15 15 16 13 12 10 10 6 15 13 9 5 4 4 5 7 4 5 3 3 4 4 4 3 4 3 3 4 3 8 8 6 7 11 19 21 9 10 19
10 10 19 17 16 17 20 17 16 15 17 16 11 13 14 8 14 13 14 14 10 9 6 1 5 4 3 4 3 3 4 2 5 8 9 5 4 2 4 5 5 13 14 11 15 17 19
7 6 15 16 16 11 16 18 17 16 17 15 12 15 15 18 11 7 13 17 22 21 17 8 8 3 4 4 3 3 4 3 6 5 3 4 2 6 5 7 15 15 15 20 17 15 20
Wind_Direction
95 90 84 78 67 66 61 54 45 39 32 23 18 16 13 10 8 3 355 352 347 347 347 350 353 354 23 53 55 326 312 318 329 356 14 356 324 292 258 269 277 261 265 270 271 259 258
99 96 90 80 79 68 60 51 41 35 26 19 11 10 7 5 4 1 357 351 344 347 351 355 1 19 52 87 23 1 334 323 359 11 1 7 340 310 283 272 264 290 296 283 272 266 266
91 90 79 71 72 75 56 45 30 21 14 7 360 2 360 360 0 1 356 347 346 349 356 4 13 49 73 79 60 32 28 53 50 16 328 333 329 284 311 270 274 290 286 280 262 256 244
120 109 87 80 58 54 47 32 18 2 358 351 348 352 355 356 359 2 356 346 340 357 16 12 49 76 85 71 13 12 356 321 310 315 315 291 309 285 262 279 281 274 279 276 269 248 255
160 166 139 95 128 87 45 16 356 345 342 342 345 348 352 351 359 4 0 350 355 40 13 49 34 104 73 35 21 15 12 336 312 303 274 273 259 269 269 261 271 246 260 267 271 264 290
218 224 168 144 125 80 359 345 353 351 353 354 355 352 354 353 2 11 11 15 45 53 51 58 41 98 40 352 346 11 3 17 352 341 91 185 229 261 240 250 260 279 266 262 264 271 277
128 135 113 107 90 73 50 25 11 8 1 357 357 359 3 3 6 17 29 61 51 82 47 64 46 59 12 360 45 16 12 358 355 331 338 239 262 263 283 270 281 291 281 276 277 278 272
74 87 117 97 86 69 57 28 7 4 360 4 7 7 10 8 15 22 39 78 64 52 83 61 71 49 33 13 355 13 10 354 345 346 304 248 263 305 310 290 279 274 274 273 278 278 269
129 117 117 130 105 64 40 23 7 11 6 10 12 10 13 11 33 31 46 57 45 49 79 53 21 36 18 354 345 354 359 341 327 309 307 294 289 311 291 281 271 269 269 277 284 293 282
168 125 61 78 21 36 37 30 28 5 6 7 7 5 12 15 36 40 40 31 32 85 127 49 62 46 351 315 223 338 345 330 283 296 317 286 286 287 294 286 273 274 289 287 284 283 277
224 216 287 262 301 4 22 33 13 356 4 9 10 360 16 31 45 55 33 13 35 73 188 12 61 358 352 359 322 116 331 296 289 295 282 276 294 310 295 317 300 281 295 286 287 283 283
233 232 243 255 284 344 359 24 358 346 6 10 10 359 6 29 57 59 21 22 72 230 88 139 8 349 345 353 338 330 341 308 292 288 270 256 266 279 260 307 291 299 288 271 254 258 260
251 227 220 251 281 315 12 35 9 351 7 15 5 13 32 47 69 44 30 87 236 22 232 61 345 337 332 342 339 349 341 11 6 318 324 305 273 224 246 314 278 293 319 291 249 224 254
247 235 235 247 288 59 49 28 17 358 8 26 23 59 56 60 74 47 39 227 58 241 34 16 320 318 339 358 5 339 341 350 32 18 310 342 325 348 358 308 305 305 307 285 297 301 299
223 189 155 161 146 75 45 28 20 17 17 43 79 70 53 78 60 26 329 67 78 49 28 338 311 298 90 352 334 326 325 321 39 30 10 319 283 322 297 300 295 326 288 313 271 275 260
218 212 205 209 173 175 4 351 9 20 41 73 132 100 70 80 47 20 41 98 111 89 342 288 305 328 311 335 324 334 322 2 9 25 344 317 298 293 320 304 273 257 322 326 329 301 308
206 200 193 202 228 187 196 307 323 18 49 92 132 127 138 75 37 39 70 91 127 172 312 288 304 288 301 328 297 315 288 346 32 341 335 317 255 289 309 290 322 303 305 344 277 266 315
215 226 216 209 199 203 209 257 278 356 52 100 122 114 173 80 16 28 98 75 6 190 247 254 269 272 281 301 300 294 280 291 342 338 317 348 287 284 291 293 283 351 9 348 314 326 306
206 207 208 195 184 218 223 214 254 315 58 111 110 103 176 109 119 115 145 174 248 242 229 218 256 250 282 293 297 287 270 302 304 306 326 323 278 310 297 187 147 1 327 293 315 282 283
227 215 212 217 196 232 224 200 225 253 42 113 121 130 82 120 128 187 197 217 185 218 265 265 270 267 276 276 267 274 282 295 288 291 304 289 265 255 276 310 313 297 293 289 286 277 303
224 227 212 223 210 221 225 203 238 211 147 111 94 112 149 155 179 208 200 211 227 245 229 245 244 255 282 284 292 281 291 301 300 294 286 259 273 275 279 275 276 280 280 282 269 266 272
217 217 212 218 220 226 215 208 214 212 202 129 123 138 150 149 161 208 175 224 241 265 234 250 257 294 293 279 271 292 295 294 294 295 283 273 271 282 285 275 269 277 280 277 274 269 257
221 218 216 219 224 224 229 219 213 218 219 169 159 144 151 159 167 189 223 206 196 240 275 261 288 297 290 291 298 292 288 282 275 281 284 279 265 261 269 294 307 282 251 256 280 273 306
231 225 216 222 228 219 231 224 221 220 212 209 169 144 158 196 213 209 210 244 255 264 271 283 286 279 281 307 297 284 274 271 267 262 254 253 260 253 272 293 264 246 333 302 270 308 13
236 227 217 215 222 221 225 219 219 226 215 214 218 200 179 239 238 254 252 262 270 269 266 284 295 296 303 298 306 311 275 259 265 245 232 230 255 272 264 261 273 283 46 351 318 332 10
232 221 205 207 218 219 218 226 227 224 218 222 236 215 202 258 236 245 234 270 271 279 280 263 290 297 288 290 254 280 302 328 283 301 206 273 270 238 242 265 281 91 350 337 307 249 2
244 224 200 205 215 223 221 227 229 216 222 224 240 240 219 235 257 243 245 246 228 234 269 285 285 291 263 226 235 247 261 288 282 284 264 305 214 227 234 270 287 360 343 323 270 348 338
241 231 198 202 216 228 214 221 229 227 224 224 243 244 231 235 255 245 240 245 241 241 246 171 289 187 197 221 248 228 255 278 279 282 288 272 301 182 221 239 258 339 331 347 324 312 328
193 201 210 216 231 232 212 219 226 235 216 223 239 250 245 244 252 252 244 241 252 255 250 217 237 213 227 248 231 284 244 244 282 285 231 266 271 301 290 299 295 306 297 310 300 314 326
Height
1542 1541 1544 1543 1543 1541 1541 1543 1544 1544 1544 1543 1541 1539 1535 1533 1532 1530 1529 1526 1524 1523 1522 1521 1520 1518 1516 1519 1522 1520 1519 1517 1517 1518 1519 1518 1517 1516 1512 1507 1507 1500 1493 1494 1492 1495 1495
1542 1541 1543 1543 1540 1541 1542 1543 1544 1543 1544 1542 1541 1538 1535 1533 1531 1529 1527 1524 1523 1522 1521 1520 1518 1516 1516 1520 1522 1521 1518 1517 1517 1519 1519 1519 1519 1519 1517 1513 1508 1496 1495 1494 1493 1492 1492
1544 1543 1544 1544 1543 1538 1542 1542 1543 1543 1543 1542 1540 1537 1534 1532 1530 1528 1525 1523 1521 1521 1520 1518 1517 1515 1519 1525 1522 1521 1520 1518 1518 1519 1520 1520 1520 1520 1517 1509 1505 1504 1496 1487 1484 1484 1483
1546 1544 1544 1543 1545 1543 1542 1540 1541 1542 1541 1540 1538 1536 1533 1531 1529 1526 1524 1521 1519 1518 1517 1516 1516 1515 1522 1523 1522 1522 1521 1521 1519 1519 1519 1519 1518 1519 1517 1512 1507 1500 1492 1480 1469 1466 1471
1542 1543 1541 1543 1542 1540 1542 1540 1541 1541 1540 1538 1536 1534 1532 1529 1527 1524 1522 1519 1517 1517 1516 1515 1516 1516 1523 1523 1524 1521 1520 1519 1518 1516 1517 1518 1518 1514 1513 1507 1497 1487 1483 1471 1463 1465 1469
1540 1543 1542 1541 1541 1540 1540 1541 1540 1539 1538 1537 1535 1532 1530 1527 1525 1522 1520 1517 1516 1517 1516 1517 1518 1522 1526 1527 1523 1522 1520 1518 1518 1516 1516 1517 1516 1509 1504 1499 1490 1478 1473 1468 1466 1468 1468
1541 1542 1540 1540 1538 1539 1538 1540 1539 1538 1537 1535 1534 1531 1529 1526 1523 1521 1519 1517 1522 1522 1520 1524 1527 1527 1528 1526 1523 1524 1521 1519 1518 1516 1510 1514 1509 1498 1495 1494 1491 1490 1487 1479 1471 1470 1471
1541 1541 1539 1540 1539 1538 1535 1538 1538 1537 1535 1534 1532 1530 1528 1526 1523 1521 1519 1518 1522 1526 1527 1526 1527 1528 1527 1525 1525 1524 1522 1521 1518 1513 1513 1510 1503 1499 1499 1499 1496 1493 1488 1478 1469 1468 1467
1540 1539 1539 1538 1536 1536 1536 1535 1536 1536 1534 1533 1532 1529 1528 1525 1524 1523 1521 1522 1523 1523 1526 1530 1529 1529 1529 1528 1526 1524 1524 1521 1517 1514 1511 1510 1501 1502 1501 1496 1495 1488 1484 1476 1472 1466 1464
1540 1539 1538 1538 1538 1535 1533 1534 1533 1534 1533 1532 1531 1529 1527 1526 1527 1524 1524 1524 1524 1524 1520 1530 1529 1530 1530 1527 1525 1525 1523 1524 1517 1513 1510 1505 1501 1502 1497 1494 1493 1487 1479 1478 1474 1466 1455
1537 1538 1537 1537 1536 1535 1534 1532 1532 1533 1532 1531 1530 1528 1527 1525 1526 1527 1527 1525 1524 1526 1509 1534 1530 1531 1529 1528 1527 1522 1523 1520 1515 1510 1512 1504 1500 1495 1491 1489 1489 1484 1479 1476 1474 1464 1452
1536 1534 1537 1537 1537 1533 1531 1531 1531 1532 1531 1531 1530 1528 1527 1526 1526 1527 1526 1525 1527 1525 1524 1530 1531 1530 1528 1527 1525 1524 1522 1521 1516 1511 1504 1503 1500 1498 1491 1489 1486 1484 1480 1470 1464 1456 1452
1533 1533 1531 1535 1535 1533 1530 1529 1529 1530 1530 1530 1529 1527 1526 1526 1528 1526 1525 1527 1525 1516 1536 1531 1531 1530 1528 1526 1524 1523 1521 1518 1519 1516 1500 1493 1485 1493 1494 1485 1478 1476 1475 1464 1450 1447 1437
1532 1531 1530 1531 1534 1531 1531 1530 1529 1528 1529 1529 1529 1528 1527 1527 1526 1526 1526 1527 1517 1536 1530 1534 1533 1529 1526 1529 1525 1524 1522 1518 1523 1521 1510 1502 1493 1489 1491 1489 1484 1476 1475 1477 1462 1434 1420
1530 1529 1528 1529 1531 1531 1530 1530 1529 1527 1528 1528 1528 1529 1529 1528 1528 1527 1529 1522 1533 1531 1536 1535 1529 1525 1524 1527 1531 1526 1521 1521 1526 1525 1526 1512 1501 1493 1488 1485 1484 1474 1475 1472 1470 1444 1437
1527 1527 1529 1529 1528 1528 1529 1530 1529 1528 1527 1527 1528 1530 1530 1529 1529 1528 1529 1534 1533 1537 1537 1536 1531 1531 1526 1523 1529 1524 1522 1525 1525 1526 1527 1519 1510 1489 1486 1484 1480 1481 1478 1474 1467 1455 1439
1526 1526 1525 1525 1528 1527 1528 1527 1528 1527 1526 1526 1528 1531 1532 1531 1530 1531 1529 1534 1535 1537 1538 1537 1533 1531 1528 1529 1528 1525 1522 1521 1527 1525 1523 1520 1517 1492 1488 1481 1483 1478 1478 1479 1479 1464 1453
1521 1523 1524 1524 1524 1526 1527 1528 1526 1526 1525 1525 1527 1531 1531 1532 1535 1537 1535 1535 1538 1536 1537 1537 1536 1533 1529 1528 1526 1524 1523 1520 1523 1524 1521 1519 1519 1503 1486 1479 1482 1481 1483 1484 1481 1467 1462
1520 1519 1521 1523 1523 1524 1525 1525 1525 1526 1524 1524 1528 1531 1532 1532 1532 1536 1536 1536 1537 1535 1535 1535 1534 1533 1531 1530 1530 1522 1522 1523 1524 1524 1521 1522 1511 1506 1481 1473 1484 1490 1491 1490 1489 1481 1461
1518 1517 1518 1522 1521 1524 1524 1524 1523 1525 1523 1525 1527 1530 1534 1534 1535 1534 1533 1533 1534 1537 1536 1535 1533 1532 1529 1527 1527 1524 1520 1520 1523 1521 1522 1520 1513 1509 1497 1489 1496 1492 1489 1487 1487 1478 1456
1515 1515 1515 1518 1519 1521 1523 1524 1522 1523 1524 1525 1526 1530 1531 1531 1534 1534 1535 1534 1532 1533 1535 1533 1530 1529 1528 1529 1525 1520 1516 1515 1517 1514 1514 1513 1508 1504 1501 1494 1489 1482 1478 1475 1470 1465 1467
1509 1513 1514 1514 1518 1519 1521 1521 1522 1522 1523 1524 1525 1528 1531 1530 1532 1533 1534 1532 1531 1530 1533 1528 1529 1527 1527 1529 1528 1524 1520 1518 1512 1510 1511 1511 1507 1500 1496 1485 1480 1472 1463 1457 1452 1445 1441
1507 1510 1511 1512 1514 1516 1520 1519 1520 1521 1524 1524 1523 1525 1528 1530 1530 1531 1529 1528 1529 1531 1529 1529 1529 1529 1526 1524 1522 1520 1518 1513 1511 1509 1505 1505 1502 1498 1485 1478 1476 1471 1453 1442 1438 1436 1435
1502 1505 1507 1510 1511 1513 1514 1518 1518 1520 1522 1524 1522 1525 1528 1525 1526 1525 1528 1528 1527 1527 1527 1527 1527 1524 1523 1522 1520 1514 1507 1502 1499 1498 1497 1496 1496 1494 1482 1482 1475 1447 1438 1437 1437 1434 1442
1496 1498 1503 1506 1508 1510 1512 1515 1516 1517 1520 1522 1520 1522 1525 1523 1523 1522 1523 1524 1524 1524 1524 1523 1523 1522 1522 1521 1516 1507 1498 1499 1492 1488 1486 1489 1489 1482 1480 1468 1454 1441 1444 1447 1439 1437 1447
1492 1494 1497 1502 1505 1507 1509 1512 1513 1514 1517 1519 1519 1519 1522 1523 1517 1518 1519 1520 1520 1519 1520 1521 1521 1521 1521 1519 1517 1510 1496 1498 1489 1485 1484 1484 1483 1481 1475 1473 1455 1450 1441 1440 1434 1428 1444
1490 1492 1494 1497 1502 1504 1506 1509 1511 1512 1514 1516 1517 1516 1518 1518 1515 1517 1517 1517 1519 1520 1519 1519 1519 1518 1519 1515 1510 1502 1494 1491 1484 1488 1481 1477 1482 1479 1474 1468 1450 1444 1445 1438 1430 1439 1439
1488 1489 1491 1494 1498 1501 1502 1505 1508 1510 1512 1514 1514 1514 1514 1513 1511 1512 1513 1514 1515 1517 1517 1518 1518 1516 1518 1514 1506 1499 1497 1489 1489 1479 1476 1474 1472 1472 1471 1466 1454 1449 1446 1447 1445 1441 1440
1487 1487 1490 1493 1495 1497 1499 1501 1504 1507 1509 1511 1512 1511 1511 1510 1507 1505 1506 1507 1509 1510 1512 1512 1512 1511 1510 1509 1507 1503 1497 1493 1487 1480 1473 1471 1469 1469 1466 1450 1449 1449 1448 1444 1443 1441 1438